{"data":{"norad_id":69386,"intl_designator":"2026-124E","name":"QIANFAN-169","alt_names":[],"object_type":"PAYLOAD","status":"ACTIVE","operator":null,"country":"PRC","launch_date":"2026-06-04","launch_site_code":"TAISC","launch_vehicle":null,"mission":null,"orbit_class":"UNKNOWN","rcs_meters":null,"size_class":null,"mass_kg":null,"dimensions":null,"purposes":[],"wikipedia_slug":null,"has_3d_model":false,"image_url":null,"decayed_at":null,"tle_current":{"epoch":"2026-09-20T04:09:46.408320Z","epoch_age_seconds":63213,"freshness":"FRESH","line1":"1 69386U 26124E   26263.17345380  .00000110  00000+0  15200-3 0  9999","line2":"2 69386  89.0057 352.0520 0001837 100.5841 259.5517 13.51023708 14861","mean_motion":13.51023708,"eccentricity":0.0001837,"inclination_deg":89.0057,"raan_deg":352.052,"arg_perigee_deg":100.5841,"mean_anomaly_deg":259.5517,"bstar":0.000152,"rev_number":1486,"period_min":106.58584238553,"perigee_km":1067.1265212442,"apogee_km":1069.8624136453,"semimajor_km":7446.6314674448,"source":"CELESTRAK","updated_at":"2026-09-20T09:00:24.858878Z"}}}